Regional Weather Roundup
Issued by NWS Midland/Odessa, TX

Skip options and go directly to product.
Home | Oldest Version | Previous Version | Current Version | All | Text Only | Save Text | Print | Product List | Glossary Off

Skip product version selection by date and time.   

521
ASUS44 KMAF 012310
RWRMAF
MIDLAND AREA WEATHER ROUNDUP
NATIONAL WEATHER SERVICE MIDLAND TX
500 PM CST SUN MAR 01 2015

...IN SOUTHWEST TEXAS AND SOUTHEAST NEW MEXICO...

CITY           SKY/WX    TMP DP  RH WIND       PRES   REMARKS
ALPINE         SUNNY     59  41  51 E9        30.18R
ANDREWS        CLOUDY    35  34  94 NE7       30.20S WCI  30
ARTESIA        PTSUNNY   46  37  71 SE7       30.15R
BIG SPRING     CLOUDY    36  34  92 NE13      30.26S WCI  27
CARLSBAD       PTSUNNY   47  35  63 SE12      30.13F
DRYDEN           N/A     50  43  77 E6        30.15S
FORT STOCKTON  CLOUDY    44  39  82 E12       30.16S WCI  38
GUAD PASS      NOT AVBL
HOBBS          CLOUDY    39  39 100 NE10      30.18R WCI  32
MARFA          SUNNY     72  21  15 S9        30.12S
MIDLAND AIRPK  CLOUDY    37  37 100 E10       30.22R FOG     WCI  30
MIDLAND INTL   CLOUDY    37  36  96 NE12      30.20F WCI  29
ODESSA         CLOUDY    38  35  89 E10       30.19F WCI  31
PECOS          CLOUDY    44  37  78 NE9       30.17F WCI  39
PRESIDIO       FAIR      73  37  27 SW3       30.02F
SEMINOLE       CLOUDY    36  33  88 E8        30.20F WCI  30
SNYDER         CLOUDY    30  30  99 NE7       30.26S FOG     WCI  24
WINK           CLOUDY    44  35  70 E6        30.16F
$$
...OTHER STATIONS IN TEXAS...

CITY           SKY/WX    TMP DP  RH WIND       PRES   REMARKS
ABILENE        CLOUDY    32  30  92 NE7       30.29S FOG     WCI  26
AMARILLO       CLOUDY    31  27  85 NE10      30.25R FOG     WCI  22
AUSTIN         CLOUDY    42  41  96 N15       30.24S FOG     WCI  34
BROWNSVILLE    CLOUDY    59  56  89 N7        30.13S
CORPUS CHRISTI DRIZZLE   51  50  96 N10       30.16S FOG
DALLAS FTW     CLOUDY    36  34  92 N12       30.32S WCI  28
DEL RIO        CLOUDY    52  46  80 NW6       30.18R
EL PASO        PTSUNNY   74  14  10 SW13      30.02S
HOUSTON INT    FOG       57  56  96 N7        30.19R VSB 1/4
LUBBOCK        CLOUDY    32  28  85 N6        30.23R WCI  26
SAN ANGELO     CLOUDY    37  36  96 NE9       30.24S FOG     WCI  30
SAN ANTONIO    LGT RAIN  47  45  93 N8        30.20S FOG
WACO           CLOUDY    39  37  92 N13       30.28F WCI  31
WICHITA FALLS  NOT AVBL
$$
...OTHER LOCATIONS IN NEW MEXICO...

CITY           SKY/WX    TMP DP  RH WIND       PRES   REMARKS
ALAMAGORDO     PTSUNNY   70  28  21 S15G23    30.04S
ALBUQUERQUE    MOSUNNY   62  34  35 S9        30.02F
CANNON AFB     CLOUDY    33  31  91 E9        30.19R WCI  26
CLOVIS         CLOUDY    32  30  93 E7        30.20R WCI  26
HOLLOMAN AFB   PTSUNNY   71  27  19 N20       30.01S
ROSWELL        CLOUDY    38  34  85 NW6       30.15S WCI  33
RUIDOSO        MOSUNNY   59  27  29 SW13G18   30.14R
SANTA FE       CLOUDY    53  34  48 SW5       30.07S
TRUTH OR CONSE MOSUNNY   68  27  21 SW20G29   30.02R
TUCUMCARI      CLOUDY    34  30  85 E13       30.20R WCI  25
$$

USA.gov is the U.S. government's official web portal to all federal, state and local government web resources and services.